Find Kosmos-2022

NORAD ID: 20024 Int'l Des: 1989-039 Owner: UNKS Country: SU Constellation: GLONASS operational
MEOCIRCULAR

实时位置

正在加载3D地球...

关于 Kosmos-2022

正在加载描述...

即将过境

Passes for default location (London). Set your location on the main map for personalized predictions.

高度历史

Loading altitude history...

两行轨道根数

1 20024U 89039A 26107.17869222 -.00000008 00000-0 00000-0 0 9999
2 20024 64.9725 312.9817 0008443 208.5967 332.4503 2.13102188287036
Epoch: Apr 17, 2026 • Age: 12 hours

当前状态

高度 19118.8 km
速度 3.96 km/s
星下点 -32.15°S, 54.59°E
发射日期 May 31, 1989
运行时间 36.8 years
类型 other

技术详情

分类 Payload
质量 1300.00 kg
干质量 1200.00 kg
总质量 1300.00 kg
长度 4.00 m
直径 1.50 m
跨度 7.80 m
形状 Cyl + Ant + 2 Pan
制造商 OAZ
平台类型 Uragan
阶段状态 In Orbit
所有者/国家 UNKS/SU

Most Searched